Weather History for Danville, IL

Change the Weather History Date:

Thursday, January 9, 2014

  Actual Average (KLAF) Record (KLAF)
Temperature  
Mean Temperature 22 °F 26 °F  
Max Temperature 31 °F 34 °F 52 °F (2002)
Min Temperature 12 °F 19 °F -11 °F (1982)
Degree Days  
Heating Degree Days 44 39  
Month to date heating degree days 347  
Since 1 July heating degree days 2522  
Cooling Degree Days 0 0  
Month to date cooling degree days 0  
Year to date cooling degree days 0  
Moisture  
Dew Point 19 °F    
Average Humidity 88    
Maximum Humidity 98    
Minimum Humidity 76    
Precipitation  
Precipitation 0.00 in 0.07 in 0.50 in (1964)
Month to date precipitation 0.59  
Year to date precipitation 0.59  
Sea Level Pressure  
Sea Level Pressure 30.33 in    
Wind  
Wind Speed 6 mph (ESE)    
Max Wind Speed 15 mph    
Max Gust Speed 18 mph    
Visibility 8 miles    
Events Rain , Snow    
T = Trace of Precipitation, MM = Missing Value Source: NWS Daily Summary

Daily Weather History Graph

Daily Weather History Graph

Search for Another Location

Airport:

Trip Planner

Search our weather history database for the weather conditions in past years. The results will help you decide how hot, cold, wet, or windy it might be!

Date:

Astronomy

Jan. 09, 2014 Rise Set
Actual Time 7:12 AM CST 4:42 PM CST
Civil Twilight 6:42 AM CST 5:12 PM CST
Nautical Twilight 6:08 AM CST 5:46 PM CST
Astronomical Twilight 5:35 AM CST 6:19 PM CST
Moon 12:09 PM CST (1/9) 1:19 AM CST (1/9)
Length of Visible Light 10h 30m
Length of Day
9h 30m
Waxing Gibbous, 66% of the Moon is Illuminated
Jan 9
Waxing Gibbous
Jan 15
Full
Jan 23
Last Quarter
Jan 30
New
Feb 6
First Quarter

Hourly Weather History & Observations

Time (CST) Temp. Windchill Dew Point Humidity Pressure Visibility Wind Dir Wind Speed Gust Speed Precip Events Conditions
12:15 AM 16.0 °F 8.8 °F 9.5 °F 76% 30.46 in 10.0 mi ENE 4.6 mph - N/A   Overcast
12:35 AM 16.2 °F 9.0 °F 9.9 °F 76% 30.46 in 10.0 mi NE 4.6 mph - N/A   Overcast
12:55 AM 16.0 °F 6.3 °F 9.9 °F 77% 30.45 in 10.0 mi ENE 6.9 mph - N/A   Overcast
1:15 AM 15.8 °F 8.6 °F 9.5 °F 76% 30.45 in 10.0 mi ENE 4.6 mph - N/A   Overcast
1:35 AM 16.0 °F 8.8 °F 9.9 °F 77% 30.46 in 10.0 mi ENE 4.6 mph - N/A   Overcast
1:55 AM 15.8 °F 6.1 °F 10.0 °F 78% 30.46 in 10.0 mi NE 6.9 mph - N/A   Overcast
2:15 AM 15.4 °F 8.1 °F 10.8 °F 82% 30.46 in 10.0 mi NE 4.6 mph - N/A   Mostly Cloudy
2:35 AM 15.1 °F 6.4 °F 10.6 °F 82% 30.45 in 10.0 mi NE 5.8 mph - N/A   Mostly Cloudy
2:55 AM 14.7 °F 7.3 °F 10.4 °F 83% 30.45 in 10.0 mi ENE 4.6 mph - N/A   Scattered Clouds
3:15 AM 14.2 °F 8.4 °F 10.0 °F 84% 30.45 in 10.0 mi East 3.5 mph - N/A   Scattered Clouds
3:35 AM 13.3 °F 7.3 °F 9.7 °F 86% 30.44 in 10.0 mi ENE 3.5 mph - N/A   Scattered Clouds
3:55 AM 12.9 °F 6.9 °F 9.3 °F 86% 30.45 in 10.0 mi East 3.5 mph - N/A   Scattered Clouds
4:15 AM 13.5 °F 4.4 °F 9.7 °F 85% 30.44 in 10.0 mi East 5.8 mph - N/A   Scattered Clouds
4:35 AM 13.6 °F 6.0 °F 9.5 °F 84% 30.44 in 10.0 mi East 4.6 mph - N/A   Clear
4:55 AM 14.0 °F 6.5 °F 9.5 °F 82% 30.44 in 10.0 mi East 4.6 mph - N/A   Clear
5:15 AM 14.0 °F 8.2 °F 9.5 °F 82% 30.44 in 10.0 mi East 3.5 mph - N/A   Mostly Cloudy
5:35 AM 14.0 °F 6.5 °F 10.0 °F 84% 30.43 in 10.0 mi ENE 4.6 mph - N/A   Overcast
5:55 AM 14.0 °F 6.5 °F 10.2 °F 85% 30.43 in 10.0 mi East 4.6 mph - N/A   Overcast
6:15 AM 14.5 °F 7.1 °F 10.6 °F 84% 30.43 in 10.0 mi ENE 4.6 mph - N/A   Overcast
6:35 AM 15.3 °F 5.4 °F 11.3 °F 84% 30.42 in 10.0 mi East 6.9 mph - N/A   Overcast
6:55 AM 15.3 °F 4.4 °F 11.3 °F 84% 30.41 in 10.0 mi East 8.1 mph - N/A   Mostly Cloudy
7:15 AM 15.6 °F 5.9 °F 11.8 °F 85% 30.41 in 10.0 mi East 6.9 mph - N/A   Overcast
7:35 AM 15.8 °F 5.1 °F 12.2 °F 86% 30.41 in 10.0 mi ESE 8.1 mph - N/A   Overcast
7:55 AM 16.3 °F 5.7 °F 12.4 °F 84% 30.41 in 10.0 mi ESE 8.1 mph - N/A   Overcast
8:15 AM 16.9 °F 6.4 °F 13.1 °F 85% 30.41 in 7.0 mi ESE 8.1 mph - N/A Snow Light Snow
8:35 AM 17.4 °F 8.0 °F 13.8 °F 86% 30.40 in 5.0 mi East 6.9 mph - N/A Snow Light Snow
8:55 AM 18.0 °F 7.7 °F 14.5 °F 86% 30.40 in 4.0 mi East 8.1 mph - N/A Snow Light Snow
9:15 AM 18.7 °F 10.6 °F 15.3 °F 87% 30.40 in 3.0 mi East 5.8 mph - N/A Snow Light Snow
9:35 AM 19.4 °F 10.4 °F 16.2 °F 87% 30.39 in 3.0 mi ESE 6.9 mph - N/A Snow Light Snow
9:55 AM 20.1 °F 10.3 °F 16.9 °F 87% 30.39 in 3.0 mi ESE 8.1 mph - N/A Snow Light Snow
10:15 AM 20.1 °F 11.3 °F 17.6 °F 90% 30.39 in 1.5 mi SE 6.9 mph - N/A Snow Light Snow
10:35 AM 21.0 °F 11.4 °F 18.5 °F 90% 30.37 in 1.0 mi ESE 8.1 mph - N/A Snow Light Snow
10:55 AM 21.4 °F 13.8 °F 18.9 °F 90% 30.36 in 2.5 mi ESE 5.8 mph - N/A Snow Light Snow
11:15 AM 22.1 °F 14.7 °F 19.4 °F 89% 30.35 in 5.0 mi SE 5.8 mph - N/A Snow Light Snow
11:35 AM 22.8 °F 15.5 °F 20.1 °F 89% 30.33 in 7.0 mi SE 5.8 mph - N/A   Overcast
11:55 AM 23.7 °F 16.6 °F 20.8 °F 89% 30.31 in 7.0 mi ESE 5.8 mph - N/A   Overcast
12:15 PM 24.8 °F 17.9 °F 21.2 °F 86% 30.29 in 7.0 mi SE 5.8 mph - N/A   Overcast
12:35 PM 25.5 °F 18.7 °F 21.6 °F 85% 30.28 in 7.0 mi SE 5.8 mph - N/A   Overcast
12:55 PM 25.7 °F 18.0 °F 22.1 °F 86% 30.28 in 3.0 mi SE 6.9 mph - N/A Snow Light Snow
1:15 PM 26.1 °F 20.5 °F 23.0 °F 88% 30.27 in 3.0 mi SE 4.6 mph - N/A Snow Light Snow
1:35 PM 26.2 °F 20.7 °F 23.9 °F 91% 30.27 in 5.0 mi SE 4.6 mph - N/A Snow Light Snow
1:55 PM 27.0 °F 20.5 °F 24.3 °F 90% 30.26 in 7.0 mi ESE 5.8 mph - N/A   Overcast
2:35 PM 27.9 °F 22.6 °F 24.8 °F 88% 30.25 in 10.0 mi ESE 4.6 mph - N/A   Overcast
2:55 PM 28.2 °F 22.0 °F 24.8 °F 87% 30.25 in 10.0 mi ESE 5.8 mph - N/A   Overcast
3:15 PM 28.4 °F 22.2 °F 24.8 °F 86% 30.25 in 10.0 mi ESE 5.8 mph - N/A   Overcast
3:35 PM 28.4 °F 21.2 °F 24.8 °F 86% 30.26 in 10.0 mi SE 6.9 mph - N/A   Overcast
3:55 PM 28.8 °F 22.6 °F 25.2 °F 86% 30.26 in 3.0 mi SE 5.8 mph - N/A Snow Light Snow
4:15 PM 28.9 °F 21.9 °F 25.9 °F 88% 30.25 in 1.8 mi SE 6.9 mph - N/A Snow Light Snow
5:35 PM 28.4 °F 19.7 °F 27.5 °F 96% 30.24 in 1.8 mi SE 9.2 mph - N/A Snow Light Snow
5:55 PM 28.4 °F 20.4 °F 27.5 °F 96% 30.24 in 1.5 mi SE 8.1 mph - N/A Snow Light Snow
6:15 PM 28.4 °F 19.7 °F 27.9 °F 98% 30.23 in 2.0 mi SE 9.2 mph - N/A Snow Light Snow
6:35 PM 29.1 °F 20.0 °F 28.2 °F 96% 30.23 in 4.0 mi SSE 10.4 mph - N/A Snow Light Snow
6:55 PM 29.7 °F 20.1 °F 28.4 °F 95% 30.23 in 7.0 mi SSE 11.5 mph - N/A Snow Light Snow
7:15 PM 30.0 °F 21.7 °F 28.2 °F 93% 30.23 in 10.0 mi South 9.2 mph - N/A Rain Light Freezing Rain
7:35 PM 30.0 °F 21.7 °F 28.4 °F 94% 30.22 in 7.0 mi SSE 9.2 mph - N/A Snow Light Snow
7:55 PM 30.0 °F 21.1 °F 28.4 °F 94% 30.21 in 7.0 mi SSE 10.4 mph - N/A Snow Light Snow
8:15 PM 30.2 °F 22.6 °F 28.4 °F 93% 30.20 in 7.0 mi SSE 8.1 mph - N/A Rain Light Freezing Rain
8:35 PM 30.7 °F 21.4 °F 28.9 °F 93% 30.20 in 7.0 mi South 11.5 mph - N/A   Overcast
8:55 PM 30.9 °F 21.2 °F 29.1 °F 93% 30.19 in 10.0 mi South 12.7 mph - N/A   Overcast
9:15 PM 30.9 °F 20.7 °F 29.3 °F 94% 30.19 in 7.0 mi South 13.8 mph - N/A   Light Freezing Rain
9:35 PM 31.1 °F 20.5 °F 29.3 °F 93% 30.18 in 7.0 mi South 15.0 mph 18.4 mph N/A Rain Light Freezing Rain
9:55 PM 31.1 °F 20.9 °F 29.3 °F 93% 30.18 in 10.0 mi South 13.8 mph - N/A   Overcast
10:15 PM 31.1 °F 20.5 °F 29.7 °F 94% 30.18 in 10.0 mi South 15.0 mph - N/A   Overcast
10:35 PM 31.1 °F 21.4 °F 29.8 °F 95% 30.17 in 10.0 mi South 12.7 mph - N/A   Overcast
10:55 PM 31.1 °F 21.9 °F 30.0 °F 96% 30.16 in 10.0 mi South 11.5 mph - N/A   Overcast
11:15 PM 31.5 °F 22.3 °F 30.2 °F 95% 30.16 in 7.0 mi South 11.5 mph - N/A   Overcast
11:35 PM 31.6 °F 22.6 °F 30.2 °F 94% 30.15 in 10.0 mi South 11.5 mph - N/A   Overcast
11:55 PM 31.6 °F 22.6 °F 30.6 °F 96% 30.15 in 7.0 mi South 11.5 mph - N/A   Overcast